Regional Weather Roundup
Issued by NWS Burlington, VT

Home | Current Version | Previous Version | Text Only | Print | Product List | Glossary On
Versions: 1 2 3 4 5 6 7 8 9 10 11 12 13 14 15 16 17 18 19 20 21 22 23 24 25 26 27 28 29 30 31 32 33 34 35 36 37 38 39 40 41 42 43 44 45 46 47 48 49 50
462
ASUS41 KBTV 290210
RWRBTV
VERMONT REGIONAL WEATHER ROUNDUP
NATIONAL WEATHER SERVICE BURLINGTON VT
1000 PM EDT TUE MAR 28 2017

NOTE: "FAIR" INDICATES FEW OR NO CLOUDS BELOW 12,000 FEET WITH NO
SIGNIFICANT WEATHER AND/OR OBSTRUCTIONS TO VISIBILITY.

* THESE REPORTS ARE NOT UNDER NWS QUALITY CONTROL AND/OR DO NOT
  REPORT WEATHER SUCH AS PRECIPITATION AND FOG.

VTZ001>019-290300-
_____VERMONT_____


CITY           SKY/WX    TMP DP  RH WIND       PRES   REMARKS
BURLINGTON     LGT RAIN  37  35  92 N6        30.05R
MONTPELIER     FOG       36  36 100 NW3       30.02R VSB 1/2
MORRISVILLE    CLOUDY    35  31  85 NE6       30.03R WCI  30
ST. JOHNSBURY*   N/A     37  37 100 MISG      29.97R
LYNDONVILLE*   CLOUDY    36  35  94 W7        29.99R WCI  31
MIDDLEBURY*    CLOUDY    35  35  98 N9        30.02R FOG     WCI  28
RUTLAND*       CLOUDY    36  36 100 N9        29.99R FOG     WCI  29
SPRINGFIELD    CLOUDY    36  34  92 CALM      29.98R FOG
HIGHGATE*      CLOUDY    34  34 100 CALM      30.05S FOG
NEWPORT*       CLOUDY    33  33  98 NW7       30.02R WCI  27
BENNINGTON     LGT RAIN  44  43  96 VRB3      29.94S FOG
SUTTON*          N/A     34 N/A N/A MISG        N/A

_____LAKE CHAMPLAIN_____


CITY           SKY/WX    TMP DP  RH WIND       PRES   REMARKS
BURTON ISLAND*   N/A     36  36 100 E1          N/A
COLCHESTER RF*   N/A     36  37 100 NE8         N/A  WCI  29
DIAMOND ISL*     N/A     37  36  93 NW18        N/A  WCI  27

$$

NYZ007-026>031-035-052-083-087-290300-
_____NORTHERN NEW YORK_____


CITY           SKY/WX    TMP DP  RH WIND       PRES   REMARKS
PLATTSBURGH    CLOUDY    37  36  96 CALM      30.06R FOG
SARANAC LAKE   CLOUDY    36  36 100 VRB5      30.01R
MASSENA        CLOUDY    39  35  86 W6        30.09R
POTSDAM*       CLOUDY    37  37 100 CALM      30.07S
WATERTOWN      CLOUDY    40  36  86 CALM      30.10R
FT DRUM        CLOUDY    38  34  85 N7        30.08R
ALBANY         LGT RAIN  45  43  93 N12G17    29.99R VSB 1
GLENS FALLS    CLOUDY    39  36  89 N7        30.01R

$$
NHZ002-005-011-290300-
_____NEW HAMPSHIRE_____


CITY           SKY/WX    TMP DP  RH WIND       PRES   REMARKS
LEBANON        CLOUDY    37  35  92 CALM      29.97R
KEENE          LGT RAIN  37  37 100 CALM      29.98R FOG
MT WASHINGTON  FOG       32  32 100 W31         N/A  VSB 0   WCI  17
PLYMOUTH       CLOUDY    34  34  99 CALM      29.97R FOG
WHITEFIELD     FOG       37  35  92 CALM      29.96S VSB 3/4

$$

_____REGIONAL QUEBEC LOCATIONS_____


CITY           SKY/WX    TMP DP  RH WIND       PRES   REMARKS
MONTREAL       DRIZZLE   36  36 100 W5        30.06R FOG     WCI  32
QUEBEC CITY    LGT SNOW  32  30  93 SE6       30.05S FOG     WCI  26
SHERBROOKE     CLOUDY    34  34 100 NW3       30.00S

_____REGIONAL ONTARIO LOCATIONS_____


CITY           SKY/WX    TMP DP  RH WIND       PRES   REMARKS
OTTAWA         MOCLDY    39  32  75 N5        30.10R

______KEY______
VSB  - VISIBILITY IN MILES
WCI  - WIND CHILL INDEX
HX   - HEAT INDEX
$$
NNNN




USA.gov is the U.S. government's official web portal to all federal, state and local government web resources and services.